Retour au catalogue

STARLINK-30589

ActifCommunicationsVLEO
NORAD 58103·PAYLOAD·🇺🇸 United States

Lancé Oct 21, 2023 depuis Vandenberg Space Force Base

Loading…

Prochains Passages (prochaines 24 heures)

TLE

FraisSource: CelesTrak SupGP

Époque: Sep 15, 2026, 01:56 UTC

1 58103C 23161G   26258.08104167  .00039544  00000+0  11684-2 0  2584
2 58103  53.1605   4.7508 0001179  82.9604 174.1446 15.34369779    12

Suivez STARLINK-30589 en temps réel avec AllMySat

Download on the App Store